This is the latest recevied weather packets stored in our database for station/object NA9VY-8. If no packets are shown the sender has not sent any weather packets the latest 10 day(s).
| Time | Temp. | Humidity | Pressure | Rain* | Wind** | Luminosity | Snow |
|---|---|---|---|---|---|---|---|
| 1777895290 | 12.78° C | 87% | 1013 hPa | 0 mm | - | 5 W/m² | - |
| 1777894988 | 12.78° C | 88% | 1012.9 hPa | 0 mm | - | 4 W/m² | - |
| 1777894685 | 12.78° C | 87% | 1012.8 hPa | 0 mm | - | 2 W/m² | - |
| 1777894381 | 13.33° C | 85% | 1012.9 hPa | 0.51 mm | - | 0 W/m² | - |
| 1777894079 | 13.33° C | 82% | 1012.9 hPa | 0.51 mm | - | 1 W/m² | - |
| 1777893776 | 13.33° C | 81% | 1012.7 hPa | 0 mm | - | 1 W/m² | - |
| 1777893472 | 13.33° C | 81% | 1012.5 hPa | 0 mm | - | 4 W/m² | - |
| 1777893169 | 13.33° C | 80% | 1012.3 hPa | 0 mm | - | 7 W/m² | - |
| 1777892865 | 13.33° C | 79% | 1012.3 hPa | 0 mm | - | 2 W/m² | - |
| 1777892562 | 12.78° C | 80% | 1013.2 hPa | 0 mm | - | 1 W/m² | - |
| 1777892257 | 12.78° C | 80% | 1012.8 hPa | 0 mm | - | 0 W/m² | - |
| 1777891954 | 12.78° C | 81% | 1012.6 hPa | 0 mm | - | 0 W/m² | - |
| 1777891652 | 12.78° C | 81% | 1012.8 hPa | 0 mm | - | 0 W/m² | - |
| 1777891348 | 12.78° C | 81% | 1012.7 hPa | 0 mm | - | 0 W/m² | - |
| 1777891044 | 12.78° C | 81% | 1013 hPa | 0 mm | - | 0 W/m² | - |
| 1777890743 | 12.78° C | 82% | 1013 hPa | 0 mm | - | 0 W/m² | - |
| 1777890439 | 12.78° C | 81% | 1013 hPa | 0 mm | - | 0 W/m² | - |
| 1777890135 | 12.78° C | 82% | 1012.9 hPa | 0 mm | - | 0 W/m² | - |
| 1777889832 | 12.78° C | 82% | 1012.9 hPa | 0 mm | - | 0 W/m² | - |
| 1777889530 | 12.78° C | 81% | 1013 hPa | 0 mm | - | 0 W/m² | - |
| 1777889227 | 12.78° C | 81% | 1012.9 hPa | 0 mm | - | 0 W/m² | - |
| 1777888925 | 12.78° C | 81% | 1012.6 hPa | 0 mm | - | 0 W/m² | - |
| 1777888622 | 12.78° C | 80% | 1012.9 hPa | 0 mm | - | 0 W/m² | - |
| 1777888317 | 12.78° C | 80% | 1012.8 hPa | 0 mm | - | 0 W/m² | - |
| 1777888014 | 12.78° C | 79% | 1013 hPa | 0 mm | - | 0 W/m² | - |
* Rain latest hour (hover to see other rain measurements)
** Current wind speed in m/s (hover to see current wind gust speed)